National Weather Service Raw Text Product

Displaying AFOS PIL: RWRIA Received: 2018-01-12 06:00 UTC


759 
ASUS43 KDMX 120606
RWRIA 

WEATHER ROUNDUP FOR IOWA
NATIONAL WEATHER SERVICE DES MOINES IA
1200 AM CST FRI JAN 12 2018

NOTE: "FAIR" INDICATES FEW OR NO CLOUDS BELOW 12,000 FEET WITH NO
SIGNIFICANT WEATHER AND/OR OBSTRUCTIONS TO VISIBILITY.

* - THESE STATIONS ARE NOT NWS STATIONS...THUS NOT UNDER NWS
QUALITY CONTROL.  THEY ALSO DO NOT REPORT WEATHER SUCH 
AS PRECIPITATION OR FOG.  

IAZ001>003-012>014-020>022-031>034-043>046-120700-
   NORTHWEST IOWA
  
CITY           SKY/WX    TMP DP  RH WIND       PRES   REMARKS
CARROLL *      CLOUDY     3  -4  72 NW14      30.27R WCI -15          
CHEROKEE *     CLOUDY     1  -7  70 N14G23    30.31S WCI -18          
DENISON *      CLEAR      3  -4  72 NW17      30.30S WCI -17          
LE MARS *      CLOUDY     1  -8  66 N15G22    30.35S WCI -18          
ORANGE CITY *  CLOUDY     0  -8  71 NW15G21   30.31S WCI -20          
SHELDON *      CLOUDY    -2 -11  65 N14G21    30.30R WCI -21          
SIOUX CITY     CLOUDY     2  -7  66 N17       30.36R WCI -18          
6HR MIN TEMP:   2; 6HR MAX TEMP:   9;                                

SPENCER        CLOUDY    -2 -11  65 NW16      30.28S WCI -23          
6HR MIN TEMP:  -2; 6HR MAX TEMP:   8;                                

STORM LAKE *   CLOUDY     0  -8  71 N16G26    30.26R WCI -21          
$$
 
IAZ055>058-069>071-079>083-090>094-120700-
   SOUTHWEST IOWA
  
CITY           SKY/WX    TMP DP  RH WIND       PRES   REMARKS
ATLANTIC *     CLOUDY     5  -2  72 N15       30.28R WCI -13          
AUDUBON *      CLOUDY     3  -2  78 NW12G18   30.26R WCI -13          
CLARINDA *     CLOUDY     9   0  66 N17G25      N/A  WCI -10          
COUNCIL BLFS * CLOUDY     5  -2  72 NW18G30   30.29S WCI -15          
CRESTON *      CLOUDY     5   0  78 NW15G23   30.22S WCI -13          
HARLAN  *      CLOUDY     3  -2  78 NW18G25   30.32R WCI -17          
LAMONI         LGT SNOW   9   4  80 N16G25    30.18R WCI  -8          
6HR MIN TEMP:   9; 6HR MAX TEMP:  13; 6HR PCP: TRACE;                

RED OAK *      CLOUDY     7  -2  66 N17G24    30.30R WCI -12          
SHENANDOAH *   CLOUDY     7   0  72 N14G22    30.32R WCI -10          
$$
 
IAZ047>049-059>061-072>074-084-120700-
   CENTRAL IOWA
  
CITY           SKY/WX    TMP DP  RH WIND       PRES   REMARKS
AMES           CLOUDY     3  -3  76 N20G28    30.23R WCI -18          
6HR MIN TEMP:   3; 6HR MAX TEMP:   9; 6HR PCP: TRACE;                

ANKENY *       CLOUDY     5  -2  72 NW17G25   30.24R WCI -14          
BOONE *        CLOUDY     1  -6  71 NW22G30   30.21S WCI -21          
CHARITON *     CLOUDY     7   0  72 NW23G32   30.18R WCI -14          
DES MOINES     CLOUDY     6  -2  69 N18       30.22S WCI -13          
6HR MIN TEMP:   6; 6HR MAX TEMP:  12; 6HR PCP: TRACE;                

GRINNELL*      CLOUDY     3  -2  79 NW22G31   30.16R WCI -19          
KNOXVILLE *    CLOUDY     5  -4  66 NW21      30.17S WCI -16          
MARSHALLTOWN   CLOUDY     2  -4  76 NW21G36   30.17S WCI -20          
6HR MIN TEMP:   2; 6HR MAX TEMP:   7;                                

NEWTON *       CLOUDY     3  -2  78 NW23G31   30.19R WCI -19          
PELLA *        CLOUDY     6  -1  73 NW18G28   30.19S WCI -14          
PERRY *          N/A      4  -4  69 NW20      30.26R WCI -17          
$$
 
IAZ004>006-015-016-023>025-035-036-120700-
   NORTH CENTRAL IOWA
  
CITY           SKY/WX    TMP DP  RH WIND       PRES   REMARKS
ALGONA *       CLEAR     -2 N/A N/A NW18      30.24R WCI -24          
CLARION *      CLOUDY    -2  -8  78 N23G35    30.23R WCI -26          
ESTHERVILLE    CLOUDY    -5 -12  72 NW25G36   30.26R WCI -31          
6HR MIN TEMP:  -5; 6HR MAX TEMP:   4;                                

FORT DODGE *   CLOUDY    -1  -8  72 NW14G21   30.25R WCI -20          
MASON CITY     CLOUDY    -3  -9  75 NW22G33   30.21R WCI -27          
6HR MIN TEMP:  -3; 6HR MAX TEMP:   4;                                

FOREST CITY *    N/A      0  -8  71 N23G29    30.21R WCI -24          
WEBSTER CITY * CLOUDY     0  -8  71 NW21G31   30.22R WCI -23          
IOWA FALLS *     N/A      1  -5  75 NW21G29   30.20S WCI -21          
$$

IAZ007>011-017>019-026>030-037>042-050>054-066-120700-
   NORTHEAST IOWA
  
CITY           SKY/WX    TMP DP  RH WIND       PRES   REMARKS
CEDAR RAPIDS   CLOUDY     9   3  77 NW18G29   30.09R WCI -10          
6HR MIN TEMP:   8; 6HR MAX TEMP:  11;                                

CHARLES CITY * CLOUDY     1  -2  85 NW22G28   30.15R WCI -21          
CLINTON *      CLOUDY    12   7  80 NW18G26   30.04R WCI  -6          
DECORAH *      MOCLDY     7   1  78 N22G29    30.08R WCI -14          
DUBUQUE          N/A     10   3  73 N21G28    30.02R WCI  -9          
6HR MIN TEMP:   9; 6HR MAX TEMP:  12;                                

MONTICELLO *   CLOUDY    10   1  67 N17G25    30.07R WCI  -7          
OELWEIN *      CLOUDY     7   3  85 N23G33    30.10R WCI -14          
WATERLOO         N/A      3  -3  76 NW23G30   30.15R WCI -19          
6HR MIN TEMP:   3; 6HR MAX TEMP:   8;                                

$$
 
IAZ064-065-067-068-078-120700-
   EAST CENTRAL IOWA
  
CITY           SKY/WX    TMP DP  RH WIND       PRES   REMARKS
DAVENPORT      CLOUDY    12   5  73 NW21G28   30.06S WCI  -7          
6HR MIN TEMP:  11; 6HR MAX TEMP:  14;                                

IOWA CITY      CLOUDY    10   2  69 NW16G24   30.12R WCI  -7          
6HR MIN TEMP:   9; 6HR MAX TEMP:  12;                                

MT. PLEASANT * CLOUDY    10   3  72 NW14G25   30.10F WCI  -5          
MUSCATINE *    CLOUDY    12   5  73 NW20G26   30.11S WCI  -6          
QUAD CITIES    MOCLDY    12   5  73 NW21      30.06  WCI  -7          
6HR MIN TEMP:  11; 6HR MAX TEMP:  15; 6HR PCP: TRACE;                

$$
 
IAZ062-063-075>077-085>089-095>099-120700-
   SOUTHEAST IOWA
  
CITY           SKY/WX    TMP DP  RH WIND       PRES   REMARKS
BURLINGTON     CLOUDY    10   3  73 NW12G25   30.08F WCI  -5          
6HR MIN TEMP:   9; 6HR MAX TEMP:  13;                                

FAIRFIELD *    CLOUDY     9   0  66 NW24G30   30.12F WCI -12          
FORT MADISON * CLOUDY    10   5  79 NW14G23   30.10F WCI  -5          
KEOKUK *       CLOUDY    10   5  79 NW15G21   30.11S WCI  -6          
OSKALOOSA *      N/A      6   0  76 NW23G33   30.17S WCI -15          
OTTUMWA        CLOUDY     7   0  73 NW18G30   30.16R WCI -12          
6HR MIN TEMP:   7; 6HR MAX TEMP:  11; 6HR PCP: TRACE;                

WASHINGTON *   CLOUDY     9   3  78 NW22G30   30.12F WCI -11          
$$

ABBREVIATIONS USED IN REMARKS
   TC - TEMPERATURES IN CELSIUS
  WCI - WIND CHILL INDEX
   HX - HEAT INDEX
  VSB - VISIBILITY  
$$

  

789 
ASUS43 KDMX 120601
RWRIA 

WEATHER ROUNDUP FOR IOWA
NATIONAL WEATHER SERVICE DES MOINES IA
1200 AM CST FRI JAN 12 2018

NOTE: "FAIR" INDICATES FEW OR NO CLOUDS BELOW 12,000 FEET WITH NO
SIGNIFICANT WEATHER AND/OR OBSTRUCTIONS TO VISIBILITY.

* - THESE STATIONS ARE NOT NWS STATIONS...THUS NOT UNDER NWS
QUALITY CONTROL.  THEY ALSO DO NOT REPORT WEATHER SUCH 
AS PRECIPITATION OR FOG.  

IAZ001>003-012>014-020>022-031>034-043>046-120700-
   NORTHWEST IOWA
  
CITY           SKY/WX    TMP DP  RH WIND       PRES   REMARKS
CARROLL *      CLOUDY     3  -4  72 NW14      30.27R WCI -15          
CHEROKEE *     CLOUDY     1  -7  70 N14G23    30.31S WCI -18          
DENISON *      CLEAR      3  -4  72 NW17      30.30S WCI -17          
LE MARS *      CLOUDY     1  -8  66 N15G22    30.35S WCI -18          
ORANGE CITY *  CLOUDY     0  -8  71 NW15G21   30.31S WCI -20          
SHELDON *      CLOUDY    -2 -11  65 N14G21    30.30R WCI -21          
SIOUX CITY     CLOUDY     2  -7  66 N17       30.36R WCI -18          
6HR MIN TEMP:   2; 6HR MAX TEMP:   9;                                

SPENCER        CLOUDY    -2 -11  65 NW16      30.28S WCI -23          
6HR MIN TEMP:  -2; 6HR MAX TEMP:   8;                                

STORM LAKE *   CLOUDY     0  -8  71 N16G26    30.26R WCI -21          
$$
 
IAZ055>058-069>071-079>083-090>094-120700-
   SOUTHWEST IOWA
  
CITY           SKY/WX    TMP DP  RH WIND       PRES   REMARKS
ATLANTIC *     CLOUDY     5  -2  72 N15       30.28R WCI -13          
AUDUBON *      CLOUDY     3  -2  78 NW12G18   30.26R WCI -13          
CLARINDA *     CLOUDY     9   0  66 N17G25      N/A  WCI -10          
COUNCIL BLFS * CLOUDY     5  -2  72 NW18G30   30.29S WCI -15          
CRESTON *      CLOUDY     5   0  78 NW15G23   30.22S WCI -13          
HARLAN  *      CLOUDY     3  -2  78 NW18G25   30.32R WCI -17          
LAMONI         LGT SNOW   9   4  80 N16G25    30.18R WCI  -8          
6HR MIN TEMP:   9; 6HR MAX TEMP:  13; 6HR PCP: TRACE;                

RED OAK *      CLOUDY     7  -2  66 N17G24    30.30R WCI -12          
SHENANDOAH *   CLOUDY     7   0  72 N14G22    30.32R WCI -10          
$$
 
IAZ047>049-059>061-072>074-084-120700-
   CENTRAL IOWA
  
CITY           SKY/WX    TMP DP  RH WIND       PRES   REMARKS
AMES           CLOUDY     3  -3  76 N20G28    30.23R WCI -18          
6HR MIN TEMP:   3; 6HR MAX TEMP:   9; 6HR PCP: TRACE;                

ANKENY *       CLOUDY     5  -2  72 NW17G25   30.24R WCI -14          
BOONE *        CLOUDY     1  -6  71 NW22G30   30.21S WCI -21          
CHARITON *     CLOUDY     7   0  72 NW23G32   30.18R WCI -14          
DES MOINES     CLOUDY     6  -2  69 N18       30.22S WCI -13          
6HR MIN TEMP:   6; 6HR MAX TEMP:  12; 6HR PCP: TRACE;                

GRINNELL*      CLOUDY     3  -2  79 NW22G31   30.16R WCI -19          
KNOXVILLE *    CLOUDY     5  -4  66 NW21      30.17S WCI -16          
MARSHALLTOWN   CLOUDY     2  -4  76 NW21G36   30.17S WCI -20          
6HR MIN TEMP:   2; 6HR MAX TEMP:   7;                                

NEWTON *       CLOUDY     3  -2  78 NW23G31   30.19R WCI -19          
PELLA *        CLOUDY     6  -1  73 NW18G28   30.19S WCI -14          
$$
 
IAZ004>006-015-016-023>025-035-036-120700-
   NORTH CENTRAL IOWA
  
CITY           SKY/WX    TMP DP  RH WIND       PRES   REMARKS
ALGONA *       CLEAR     -2 N/A N/A NW18      30.24R WCI -24          
CLARION *      CLOUDY    -2  -8  78 N23G35    30.23R WCI -26          
ESTHERVILLE    CLOUDY    -5 -12  72 NW25G36   30.26R WCI -31          
6HR MIN TEMP:  -5; 6HR MAX TEMP:   4;                                

FORT DODGE *   CLOUDY    -1  -8  72 NW14G21   30.25R WCI -20          
MASON CITY     CLOUDY    -3  -9  75 NW22G33   30.21R WCI -27          
6HR MIN TEMP:  -3; 6HR MAX TEMP:   4;                                

FOREST CITY *    N/A      0  -8  71 N23G29    30.21R WCI -24          
WEBSTER CITY * CLOUDY     0  -8  71 NW21G31   30.22R WCI -23          
IOWA FALLS *     N/A      1  -5  75 NW15G29   30.20R WCI -18          
$$

IAZ007>011-017>019-026>030-037>042-050>054-066-120700-
   NORTHEAST IOWA
  
CITY           SKY/WX    TMP DP  RH WIND       PRES   REMARKS
CEDAR RAPIDS   CLOUDY     9   3  77 NW18G29   30.09R WCI -10          
6HR MIN TEMP:   8; 6HR MAX TEMP:  11;                                

CHARLES CITY * CLOUDY     1  -2  85 NW22G28   30.15R WCI -21          
CLINTON *      CLOUDY    12   7  80 NW18G26   30.04R WCI  -6          
DECORAH *      MOCLDY     7   1  78 N22G29    30.08R WCI -14          
DUBUQUE          N/A     10   3  73 N21G28    30.02R WCI  -9          
6HR MIN TEMP:   9; 6HR MAX TEMP:  12;                                

MONTICELLO *   CLOUDY    10   1  67 N17G25    30.07R WCI  -7          
OELWEIN *      CLOUDY     7   3  85 N23G33    30.10R WCI -14          
WATERLOO         N/A      3  -3  76 NW23G30   30.15R WCI -19          
6HR MIN TEMP:   3; 6HR MAX TEMP:   8;                                

$$
 
IAZ064-065-067-068-078-120700-
   EAST CENTRAL IOWA
  
CITY           SKY/WX    TMP DP  RH WIND       PRES   REMARKS
DAVENPORT      CLOUDY    12   5  73 NW21G28   30.06S WCI  -7          
6HR MIN TEMP:  11; 6HR MAX TEMP:  14;                                

IOWA CITY      CLOUDY    10   2  69 NW16G24   30.12R WCI  -7          
6HR MIN TEMP:   9; 6HR MAX TEMP:  12;                                

MT. PLEASANT * CLOUDY    10   3  72 NW14G25   30.10F WCI  -5          
MUSCATINE *    CLOUDY    12   5  73 NW20G26   30.11S WCI  -6          
QUAD CITIES    MOCLDY    12   5  73 NW21      30.06  WCI  -7          
6HR MIN TEMP:  11; 6HR MAX TEMP:  15; 6HR PCP: TRACE;                

$$
 
IAZ062-063-075>077-085>089-095>099-120700-
   SOUTHEAST IOWA
  
CITY           SKY/WX    TMP DP  RH WIND       PRES   REMARKS
BURLINGTON     CLOUDY    10   3  73 NW12G25   30.08F WCI  -5          
6HR MIN TEMP:   9; 6HR MAX TEMP:  13;                                

FAIRFIELD *    CLOUDY     9   0  66 NW24G30   30.12F WCI -12          
FORT MADISON * CLOUDY    10   5  79 NW14G23   30.10F WCI  -5          
KEOKUK *       CLOUDY    10   5  79 NW15G21   30.11S WCI  -6          
OSKALOOSA *      N/A      6   0  76 NW23G33   30.17S WCI -15          
OTTUMWA        CLOUDY     7   0  73 NW18G30   30.16R WCI -12          
6HR MIN TEMP:   7; 6HR MAX TEMP:  11; 6HR PCP: TRACE;                

WASHINGTON *   CLOUDY     9   3  78 NW22G30   30.12F WCI -11          
$$

ABBREVIATIONS USED IN REMARKS
   TC - TEMPERATURES IN CELSIUS
  WCI - WIND CHILL INDEX
   HX - HEAT INDEX
  VSB - VISIBILITY  
$$